This demonstration page uses our WeatherBlox Daily Observations layout. Learn more.

Left ArrowRight Arrow

44.8408, -93.29828

Hourly Observations for March 12, 2016

Temp ( °F °C ) Dew Point ( °F °C ) Humidity (%) Winds ( mph kmh ) Pressure ( in mb ) Visibility ( mi km ) Precip ( " mm )
12:53 am 00:53 Mostly Clear 57 13.9 40 4.4 53 53 SSW 9 15 30.06 1018 10 16 0.00 0.00
1:53 am 01:53 Clear 55 12.8 39 3.9 55 55 SSW 8 13 30.06 1018 10 16 0.00 0.00
2:53 am 02:53 Clear 54 12.2 38 3.3 55 55 SSW 7 11 30.04 1017 10 16 0.00 0.00
3:53 am 03:53 Clear 52 11.1 38 3.3 59 59 SSW 7 11 30.04 1017 10 16 0.00 0.00
4:53 am 04:53 Clear 51 10.6 38 3.3 61 61 SSW 5 7 30.04 1017 10 16 0.00 0.00
5:53 am 05:53 Clear 50 10 38 3.3 63 63 SSW 6 9 30.03 1017 10 16 0.00 0.00
6:53 am 06:53 Mostly Sunny 50 10 38 3.3 63 63 S 7 11 30.04 1017 10 16 0.00 0.00
7:53 am 07:53 Sunny 50 10 38 3.3 63 63 SSW 9 15 30.06 1018 10 16 0.00 0.00
8:53 am 08:53 Sunny 54 12.2 38 3.3 55 55 SSW 6 9 30.06 1018 10 16 0.00 0.00
9:53 am 09:53 Sunny 58 14.4 38 3.3 48 48 SSW 8 13 30.06 1018 10 16 0.00 0.00
10:53 am 10:53 Sunny 61 16.1 38 3.3 43 43 SSW 12 19 30.05 1018 10 16 0.00 0.00
11:53 am 11:53 Sunny 64 17.8 39 3.9 40 40 S 14 22 30.04 1017 10 16 0.00 0.00
12:53 pm 12:53 Sunny 65 18.3 37 2.8 36 36 S 9 15 30.00 1016 10 16 0.00 0.00
1:53 pm 13:53 Partly Cloudy 67 19.4 37 2.8 33 33 SSE 8 13 29.96 1015 10 16 0.00 0.00
2:53 pm 14:53 Partly Cloudy 69 20.6 33 0.6 26 26 VRB 7 11 29.95 1014 10 16 0.00 0.00
3:53 pm 15:53 Partly Cloudy 68 20 33 0.6 27 27 S 10 17 29.94 1014 10 16 0.00 0.00
4:53 pm 16:53 Mostly Cloudy 66 18.9 37 2.8 34 34 SE 13 20 29.93 1014 10 16 0.00 0.00
5:53 pm 17:53 Mostly Cloudy 63 17.2 37 2.8 38 38 SSE 10 17 29.93 1014 10 16 0.00 0.00
6:53 pm 18:53 Mostly Cloudy 58 14.4 38 3.3 48 48 SE 6 9 29.94 1014 10 16 0.00 0.00
7:53 pm 19:53 Mostly Cloudy 58 14.4 39 3.9 50 50 SE 6 9 29.93 1014 10 16 0.00 0.00
8:53 pm 20:53 Mostly Cloudy 56 13.3 37 2.8 49 49 SSE 10 17 29.93 1014 10 16 0.00 0.00
9:53 pm 21:53 Mostly Cloudy 55 12.8 35 1.7 47 47 SSE 13 20 29.93 1014 10 16 0.00 0.00
10:53 pm 22:53 Mostly Cloudy 54 12.2 37 2.8 53 53 S 9 15 29.93 1013 10 16 0.00 0.00
11:53 pm 23:53 Mostly Cloudy 51 10.6 38 3.3 61 61 SE 6 9 29.91 1013 10 16 0.00 0.00

Powered by AerisWeather